Location: Gipe Farm
(40.9466°N, 95.5370°W)
Time: 02:53:20
(UTC-06:00)

Cosmos 1842 - Visible Passes

Search period start: 27 February 2017 00:00
Search period end: 09 March 2017 00:00
Orbit: 526 x 539 km, 82.5° (Epoch: 26 February)

Date Brightness Start Highest point End Pass type
(mag) Time Alt. Az. Time Alt. Az. Time Alt. Az.
03 Mar 5.8 20:07:13 10° NNE 20:07:17 10° NNE 20:07:17 10° NNE visible
04 Mar 5.5 19:57:34 10° NNE 19:58:14 14° NNE 19:58:14 14° NNE visible
05 Mar 5.1 19:47:55 10° NNE 19:49:16 17° NE 19:49:16 17° NE visible
05 Mar 6.4 21:24:04 10° NW 21:24:41 13° NW 21:24:41 13° NW visible
06 Mar 4.8 19:38:16 10° NNE 19:40:22 21° NE 19:40:22 21° NE visible
06 Mar 6.0 21:14:18 10° NW 21:15:48 18° NW 21:15:48 18° NW visible
07 Mar 4.5 19:28:37 10° NNE 19:31:36 22° ENE 19:31:36 22° ENE visible
07 Mar 5.6 21:04:32 10° NW 21:07:01 23° WNW 21:07:01 23° WNW visible
08 Mar 4.5 19:18:58 10° NNE 19:22:02 21° ENE 19:22:57 19° E visible
08 Mar 5.3 20:54:47 10° NW 20:58:03 25° W 20:58:23 25° W visible
